RJOHRJOO

Guest
Details From RJOH - MIHO
To RJOO - OSAKA INTL
Flight Number -
Tags generated
Created
Modified
Stats Distance 116 nm / 215 km
Max Altitude 8,300 ft / 2,530 m
Waypoints 3
Social Downloads 1
Likes 0
Share VATSIM

Download

Looking for another format? Having issues loading an existing format? Contact us
Advertisement - Login to hide

Notes

Basic altitude profile: - Ascent Rate: 2500ft/min - Ascent Speed: 250kts - Cruise Altitude: 18000ft - Cruise Speed: 420kts - Descent Rate: 1500ft/min - Descent Speed: 250kts Options: - Use NATs: yes - Use PACOTS: yes - Use low airways: no - Use high airways: yes

Route

RJOH KAMMY RJOO

ID Type Via Altitude (ft/m) Position (lat/lon) Dist (leg/tot) Name
O RJOH APT - 0 / 0 35.49147 / 133.23572 - / 0 nm MIHO
KAMMY FIX - 8,300 / 2,530 34.99101 / 134.68853 77 / 77 nm
O RJOO APT - 0 / 0 34.78560 / 135.43802 38 / 116 nm OSAKA INTL

Altitude Profile

Advertisement - Login to hide

RJOH

Details ICAO RJOH (YGJ)
Name Miho
Region Japan
Timezone Asia/Tokyo (UTC+9.0)
Stats Elevation 13 ft / 4 m (AMSL)
Location 35.493400° 133.239000°
Runways 1
Magnetic Variation 8.106° W

METAR

RJOH 231800Z 17005KT 9999 FEW015 SCT025 BKN060 03/01 Q1018

Decode

TAF

TAF RJOH 231707Z 2318/2500 18006KT 9999 FEW015 BKN030 BECMG 2403/2405 26010KT BECMG 2412/2415 18006KT

Decode

Departure Runways

ID Width Length Bearing (true/mag) Surface Threshold Overrun Markings Lighting
07 148 ft / 45 m 8,210 ft / 2,502 m 63.89° / 71.99° ASPHALT 0 ft / 0 m 187 ft / 57 m PREC-APP EDGE THRESHOLD SALS
25 148 ft / 45 m 8,210 ft / 2,502 m 243.90° / 252.01° ASPHALT 0 ft / 0 m 184 ft / 56 m PREC-APP EDGE THRESHOLD ALSF-I

RJOO

Details ICAO RJOO (ITM)
Name Osaka Intl
Region Japan
Timezone Asia/Tokyo (UTC+9.0)
Stats Elevation 39 ft / 12 m (AMSL)
Location 34.785600° 135.438000°
Runways 2
Magnetic Variation 7.764° W

METAR

Not found

TAF

TAF RJOO 231707Z 2318/2500 34007KT 9999 FEW020 SCT045

Decode

Destination Runways

ID Width Length Bearing (true/mag) Surface Threshold Overrun Markings Lighting
14L 143 ft / 44 m 5,995 ft / 1,827 m 135.18° / 142.94° ASPHALT 128 ft / 39 m 679 ft / 207 m PREC-APP CENTERLINE EDGE THRESHOLD MALSR REIL-OMNI
14R 200 ft / 61 m 9,846 ft / 3,001 m 135.14° / 142.90° ASPHALT 128 ft / 39 m 213 ft / 65 m PREC-APP CENTERLINE EDGE THRESHOLD MALS REIL-OMNI
32L 200 ft / 61 m 9,846 ft / 3,001 m 315.15° / 322.92° ASPHALT 125 ft / 38 m 249 ft / 76 m PREC-APP CENTERLINE EDGE THRESHOLD SALS TDZ
32R 143 ft / 44 m 5,995 ft / 1,827 m 315.18° / 322.95° ASPHALT 118 ft / 36 m 571 ft / 174 m PREC-APP CENTERLINE EDGE THRESHOLD ALSF-I TDZ

Approach Navaids

Runway Type Ident Frequency Range Bearing (true/mag) Slope Elevation
32L GS ISK 110.10 MHz 10 nm / 19 km 315.28° / 323.04 ° 3.00° 54 ft / 16 m (AMSL)
32L LOC-ILS ISK 110.10 MHz 18 nm / 33 km 315.13° / 322.90 ° - 50 ft / 15 m (AMSL)
32L OM OM - - 315.14° / 322.90 ° - 50 ft / 15 m (AMSL)
32L MM MM - - 315.14° / 322.90 ° - 50 ft / 15 m (AMSL)

Popular Alternatives